Other Public Products
Issued by NWS Grand Forks, ND

Home | Current Version | Previous Version | Text Only | Print | Product List | Glossary Off
Versions: 1 2 3 4 5 6 7 8 9 10 11 12 13 14 15 16 17 18 19 20 21 22 23 24 25 26 27 28 29 30 31 32 33 34 35 36 37 38 39 40 41 42 43 44 45 46 47 48 49 50

241
FPUS83 KFGF 192331
OPUFGF
PRAIRIE TO PINES WEATHER ROUNDUP
NATIONAL WEATHER SERVICE EASTERN NORTH DAKOTA/GRAND FORKS ND
600 PM CDT THU OCT 19 2017

 **SATELLITE DATA USED TO AUGMENT SKY COVER AT AUTOMATED STATIONS**
 *****  WEATHER ACROSS EASTERN NORTH DAKOTA  *****

CITY           SKY/WX    TMP DP  RH WIND       PRES   REMARKS
GRAND FORKS    FAIR      69  41  36 S14       29.71F
GRAND FORKS AF FAIR      67  39  35 S10       29.72S
GRAND CITY NWS NOT AVBL
BUXTON           N/A     68  42  39 S9          N/A
DEVILS LAKE    FAIR      69  39  33 S7        29.70S
FARGO          FAIR      69  42  37 S9        29.76S
WAHPETON ARPT  NOT AVBL
$$

 *****  WEATHER ACROSS CENTRAL AND WESTERN NORTH DAKOTA  *****

CITY           SKY/WX    TMP DP  RH WIND       PRES   REMARKS
JAMESTOWN      FAIR      69  42  37 S9        29.74S
BISMARCK       FAIR      73  37  27 SE13      29.71F
MINOT          FAIR      77  33  20 S10       29.65S
MINOT AFB      FAIR      75  33  22 S9        29.63S
GARRISON         N/A     72  36  26 S5        29.68F
WILLISTON      FAIR      77  33  20 S7        29.63F
DICKINSON      FAIR      77  31  18 S5        29.69F
HETTINGER      FAIR      76  27  16 SE5       29.73F
$$

 *****  OTHER OBSERVATIONS NORTHEAST NORTH DAKOTA  *****

CITY           SKY/WX    TMP DP  RH WIND       PRES   REMARKS
WALHALLA       FAIR     N/A N/A N/A S5        29.68R
LANGDON        FAIR      66  37  34 S10       29.70S
CAVALIER       FAIR      66  37  34 S7        29.68R
GRAFTON        FAIR      63  39  42 S9        29.71S HAZE
CANDO          FAIR      64  37  36 SE6       29.70R
FORT TOTTEN      N/A     74  36  24 S7        29.95S
ROLLA          FAIR      66  32  28 SW8       29.68S
RUGBY          FAIR      72  36  26 S5        29.67R
 ***** THE ABOVE OBSERVATIONS ARE NON NWS ARE NOT QUALITY
        CONTROLLED AND MAY MIS-REPORT RAIN FOR SNOW...
$$

 *****  OTHER OBSERVATIONS SOUTHEAST NORTH DAKOTA *****

CITY           SKY/WX    TMP DP  RH WIND       PRES   REMARKS
COOPERSTOWN    FAIR      64  41  42 S12       29.75R HAZE
VALLEY CITY    FAIR      63  43  48 S9        29.77S
OAKES          NOT AVBL
GWINNER        CLEAR     64  45  48 S6        29.78S
SHEYENNE NWR     N/A     71  41  33 SW9       29.95S
BUFFALO          N/A     67  37  33 S6          N/A
WYNDMERE       NOT AVBL
 ***** THE ABOVE OBSERVATIONS ARE NON NWS ARE NOT QUALITY
       CONTROLLED AND MAY MIS-REPORT RAIN FOR SNOW...
$$

  *****  WEATHER ACROSS NORTHERN MINNESOTA  *****

CITY           SKY/WX    TMP DP  RH WIND       PRES   REMARKS
FLAG ISLAND    FAIR      54  45  71 SE8       29.73S
WARROAD        FAIR      64  41  42 S5        29.75S
ROSEAU         FAIR      63  43  48 S9        29.74S
HALLOCK        FAIR      64  36  34 S12       29.69F
THF RVR FALLS  FAIR      68  39  34 S10       29.76S
HALSTAD          N/A     64  41  42 SW8         N/A
FOSSTON        FAIR      64  37  36 S12       29.80R
BAUDETTE       FAIR      64  38  38 S7        29.76F
WASKISH        FAIR      66  39  37 S5        29.80R
CROOKSTON      FAIR      68  37  32 S13       29.75S
$$
  *****  WEATHER ACROSS CENTRAL AND WEST MINNESOTA  *****

CITY           SKY/WX    TMP DP  RH WIND       PRES   REMARKS
BEMIDJI        FAIR      65  38  37 S7        29.82S
PARK RAPIDS    FAIR      66  39  37 S10       29.84S
WADENA         FAIR      64  41  42 S7        29.84F
DETROIT LAKES  FAIR      64  41  42 S8        29.83R
MOORHEAD       FAIR      70  39  32 S8        29.78R
FERGUS FALLS   FAIR      64  46  52 S8        29.81S
ELBOW LAKE     FAIR      64  47  54 S7        29.83S
MORRIS MN      FAIR      70  46  43 S8        29.83R
STAPLES        FAIR      64  36  34 S6        29.86F
WHEATON        FAIR      70  43  37 S8        29.82S
$$
  *****  WEATHER ELSEWHERE ACROSS MINNESOTA  *****

CITY           SKY/WX    TMP DP  RH WIND       PRES   REMARKS
DULUTH         FAIR      64  33  31 SW13      29.91F
INTRNTL FALLS  FAIR      63  35  35 SE5       29.80F
ELY            FAIR      61  30  31 S6        29.88R
CLOQUET        FAIR      63  28  27 S8        29.91S
BRAINERD       FAIR      63  36  36 S9        29.88F
HIBBING        FAIR      63  32  31 S6        29.87S
ALEXANDRIA     FAIR      68  44  42 S12       29.86F
SAINT CLOUD    FAIR      67  38  34 S14       29.91S
MINNEAPOLIS    FAIR      71  36  27 S10       29.95S
$$

  *****  WEATHER ACROSS SOUTH DAKOTA  *****

CITY           SKY/WX    TMP DP  RH WIND       PRES   REMARKS
SIOUX FALLS    FAIR      72  52  49 S13       29.89F
BROOKINGS      FAIR      69  50  50 S17       29.86F
WATERTOWN      FAIR      68  50  52 S10       29.83S
HURON          FAIR      74  46  36 S12       29.80F
SISSETON         N/A     73  46  38 S7        29.78S
ABERDEEN       FAIR      73  45  36 S9        29.77S
MITCHELL       FAIR      76  45  33 S15       29.83S
PIERRE         FAIR      78  39  24 S9        29.72F
MOBRIDGE       FAIR      73  41  31 S8        29.72F
RAPID CITY     FAIR      80  19  10 SW10      29.76S
$$

  *****  SOME WEATHER IN NEARBY STATES *****

CITY           SKY/WX    TMP DP  RH WIND       PRES   REMARKS
GLASGOW MT     FAIR      79  21  11 SW9       29.57F
GREAT FALLS MT FAIR      73  18  12 SW9       29.55F
CHEYENNE WY    FAIR      67  26  21 S12       29.97S
SCOTTSBLUFF NE FAIR      77  29  17 S12       29.84F
OMAHA NE       FAIR      77  53  43 S13       29.97F
DES MOINES IA  FAIR      74  55  51 SE9       30.02S
DAVENPORT IA   FAIR      68  48  48 SE6       30.12S
CHICAGO IL     MOCLDY    61  26  26 SE9       30.16S
EAU CLAIRE WI  FAIR      65  37  35 S10       30.00F
LA CROSSE WI   FAIR      67  36  31 S9        30.05S
$$

  *****  SOME NATIONAL WEATHER *****

CITY           SKY/WX    TMP DP  RH WIND       PRES   REMARKS
LA GUARDIA NY  FAIR      69  42  37 SW10      30.08R
RALEIGH NC     FAIR      64  49  57 CALM      30.21R
ATLANTA GA     FAIR      72  38  29 N7        30.23R
NEW ORLEANS LA MOCLDY    78  65  63 E12       30.12S
OKLAHOMA CITY  MOCLDY    73  51  46 SE10      30.06S
ALBUQUERQUE NM PTSUNNY   73  36  25 SW8       30.03R
SALT LAKE CITY FAIR      70  35  27 W9        29.84F
LOS ANGELES CA FAIR      69  63  81 W14       29.88S
BOISE ID       FAIR      77  11   8 VRB6      29.65F
SEATTLE WA     LGT RAIN  53  50  89 S12       29.50F
$$

*** WEATHER ACROSS MANITOBA...SASKATCHEWAN AND ONTARIO ***
                ***ONTARIO***

CITY           SKY/WX    TMP DP  RH WIND       PRES   REMARKS
GERALDTON      PTCLDY    46  30  53 W9        29.87R
THUNDER BAY    MOCLDY    54  30  40 SW3       29.90S
SIOUX LOOKOUT  CLOUDY    48  30  49 SE3       29.82F
TORONTO        PTCLDY    59  37  44 W13       30.05R
BIG TROUT LK   CLOUDY    37  34  87 NW10      29.82R
PICKLE LAKE    PTCLDY    41  30  65 W5        29.83R
DRYDEN         CLEAR     54  30  40 S9        29.79F
KENORA         MOCLDY    57  30  35 S9        29.75F
$$
                *** MANITOBA***

CITY           SKY/WX    TMP DP  RH WIND       PRES   REMARKS
BRANDON        MOCLDY    64  36  34 SW7       29.63R
DAUPHIN        CLEAR     63  37  39 SW5       29.56S
ISLAND LAKE    MOCLDY    39  32  75 E8        29.76
PILOT MOUND      N/A     66  36  32 S7          N/A
THE PAS        MOCLDY    43  30  61 SE10      29.58F
THOMPSON       MOCLDY    36  32  87 E6        29.72F
WINNIPEG       MOCLDY    63  36  36 S17G24    29.66S
LYNN LAKE      CLOUDY    32  32 100 SE10G18   29.63F WCI  24
CHURCHILL      CLOUDY    34  30  86 E7        29.88R
GILLAM         FLURRIES  36  34  93 E3        29.81F
$$
                ***SASKATCHEWAN***

CITY           SKY/WX    TMP DP  RH WIND       PRES   REMARKS
ESTEVAN        PTCLDY    72  36  26 S6        29.60S
KINDERSLEY     MOCLDY    61  37  41 SW9G18    29.43F
LLOYDMINSTER   MOCLDY    55  34  44 SE7       29.41S
PRINCE ALBERT  MOCLDY    52  34  50 E5        29.49
REGINA         MOCLDY    72  28  20 W7        29.52S
YORKTON        CLEAR     64  34  32 S7        29.53S



USA.gov is the U.S. government's official web portal to all federal, state and local government web resources and services.